Regional Weather Roundup
Issued by NWS Charleston, WV

Home | Current Version | Previous Version | Text Only | Print | Product List | Glossary Off
Versions: 1 2 3 4 5 6 7 8 9 10 11 12 13 14 15 16 17 18 19 20 21 22 23 24 25 26 27 28 29 30 31 32 33 34 35 36 37 38 39 40 41 42 43 44 45 46 47 48 49 50

000
ASUS41 KRLX 181710
RWRRLX
West Virginia Regional Weather Roundup
National Weather Service Charleston WV
1200 PM EST THU DEC 18 2014

Note: "fair" indicates few or no clouds below 12,000 feet with no
significant weather and/or obstructions to visibility.

WVZ003-181800-
Northern Panhandle of West Virginia

CITY           SKY/WX    TMP DP  RH WIND       PRES   REMARKS
WHEELING       CLOUDY    28  20  71 W10       30.20F
$$

WVZ009-181800-
Northwest West Virginia

CITY           SKY/WX    TMP DP  RH WIND       PRES   REMARKS
PARKERSBURG    CLOUDY    29  18  63 W5        30.27F
$$

WVZ006-181800-
Western West Virginia

CITY           SKY/WX    TMP DP  RH WIND       PRES   REMARKS
HUNTINGTON     CLOUDY    31  22  69 N6        30.23F
$$

WVZ015-181800-
West Central West Virginia

CITY           SKY/WX    TMP DP  RH WIND       PRES   REMARKS
CHARLESTON     CLOUDY    31  21  66 CALM      30.23F
$$

WVZ022-031-181800-
North Central West Virginia

CITY           SKY/WX    TMP DP  RH WIND       PRES   REMARKS
CLARKSBURG     CLOUDY    27  19  72 W5        30.22F
MORGANTOWN     CLOUDY    28  18  66 VRB5      30.21S
$$

WVZ025-035-042-045-181800-
Southern West Virginia

CITY           SKY/WX    TMP DP  RH WIND       PRES   REMARKS
BECKLEY        PTSUNNY   31  21  66 CALM      30.12F
LOGAN          CLOUDY    32  23  69 CALM      30.17F
BLUEFIELD      PTSUNNY   34  22  61 NW5       30.11F
LEWISBURG      CLOUDY    32  21  64 W7        30.12F
$$

WVZ047-181800-
Northern Mountains of West Virginia

CITY           SKY/WX    TMP DP  RH WIND       PRES   REMARKS
ELKINS         CLOUDY    27  20  75 W6        30.17F
$$

WVZ052-181800-
Eastern Panhandle of West Virginia

CITY           SKY/WX    TMP DP  RH WIND       PRES   REMARKS
MARTINSBURG    CLOUDY    34  20  56 W15       30.17F
PETERSBURG     MOSUNNY   34  16  47 NW8       30.17F
$$



USA.gov is the U.S. government's official web portal to all federal, state and local government web resources and services.